Location: Crescent
(42.8242°N, 73.7329°W)
Time: 14:00:07
(UTC+00:00)

Vanguard 2 Rocket - Pass Details

Date: 17 February 2026
Orbit: 553 x 3286 km, 32.9° (Epoch: 13 March)

Event Time Altitude Azimuth Distance (km) Brightness Sun altitude
Rises 23:21:05 0° 274° (W) 5,540 12.9 -10.1°
Reaches altitude 10° 23:26:37 10° 259° (W) 3,950 11.7 -11.2°
Maximum altitude 23:32:40 18° 221° (SW) 2,675 9.9 -12.3°
Drops below altitude 10° 23:37:06 10° 179° (S) 2,757 9.4 -13.1°
Sets 23:40:05 0° 160° (SSE) 3,380 9.7 -13.6°
